Date,TemperatureHighF,TemperatureAvgF,TemperatureLowF,DewpointHighF,DewpointAvgF,DewpointLowF,HumidityHigh,HumidityAvg,HumidityLow,PressureMaxIn,PressureMinIn,WindSpeedMaxMPH,WindSpeedAvgMPH,GustSpeedMaxMPH,PrecipitationSumIn
2013-2-1,21.6,12.7,2.3,15.1,-2.4,-9.3,78,51,41,30.43,30.33,12,8,20,0.00
2013-2-2,21.9,21.8,21.0,17.3,17.1,15.3,82,82,78,30.43,30.37,8,7,11,0.00
2013-2-3,25.5,24.4,17.6,19.0,15.8,7.5,84,69,64,30.33,30.15,11,6,11,0.01
2013-2-4,40.5,29.4,21.4,28.7,19.7,13.4,75,67,56,30.23,29.93,16,8,20,0.00
2013-2-5,43.2,31.5,19.0,31.3,23.5,11.9,81,72,62,30.25,29.94,14,6,21,0.00
2013-2-6,45.0,35.8,22.5,32.3,27.1,17.3,86,71,58,30.42,30.13,12,6,17,0.00
2013-2-7,38.8,36.2,34.3,37.5,32.8,28.8,95,87,76,30.34,30.02,19,7,27,0.41
2013-2-8,34.5,29.1,25.7,31.1,22.5,18.6,87,76,71,30.58,30.27,20,9,27,0.00
2013-2-9,36.0,32.0,27.9,29.4,25.0,20.4,81,75,66,30.68,30.17,14,8,22,0.00
2013-2-10,48.4,40.8,34.9,46.4,36.3,29.0,95,84,62,30.18,29.65,17,10,27,0.39
2013-2-11,42.6,35.5,28.4,31.6,23.6,20.7,74,62,54,30.32,29.70,27,13,34,0.00
2013-2-12,39.9,31.4,24.4,27.9,22.4,18.0,81,70,57,30.47,30.03,8,4,11,0.00
2013-2-13,48.7,35.6,23.4,32.5,26.3,18.3,87,70,47,30.29,29.84,12,3,16,0.00
2013-2-14,44.4,37.9,33.3,34.2,29.2,24.8,83,71,59,30.34,29.94,15,7,22,0.00
2013-2-15,36.3,30.2,21.9,28.4,14.0,4.8,81,53,27,30.48,30.25,16,9,23,0.00
2013-2-16,32.0,22.7,14.4,9.4,5.7,-0.1,59,48,29,30.59,30.26,13,7,114,0.00
2013-2-17,38.5,25.9,10.8,21.1,11.6,1.6,66,55,41,30.61,30.11,16,7,20,0.00
2013-2-18,54.9,40.8,25.5,46.1,31.9,17.1,93,71,55,30.24,29.60,28,15,37,0.21
2013-2-19,25.7,20.4,14.7,17.1,7.4,1.5,70,57,48,30.24,29.64,25,14,34,0.00
2013-2-20,28.0,17.4,6.4,9.8,2.6,-6.2,67,52,33,30.48,30.24,16,8,21,0.00
2013-2-21,29.3,23.3,14.5,23.8,15.8,6.0,85,73,64,30.48,30.48,15,8,21,0.00
2013-2-22,37.6,30.9,27.1,32.0,25.6,18.4,92,81,67,30.48,30.11,15,4,21,0.11
2013-2-23,34.3,26.6,16.5,20.3,16.3,8.5,71,65,54,30.19,30.11,9,5,14,0.00
2013-2-24,38.8,27.6,13.3,26.7,18.0,6.9,79,67,53,30.19,30.11,8,2,11,0.00
2013-2-25,45.7,35.0,24.6,33.4,27.0,18.7,83,73,59,30.19,29.99,13,6,17,0.00
2013-2-26,35.4,33.4,32.2,30.8,29.6,25.8,92,86,68,30.02,29.58,24,12,30,0.25
2013-2-27,36.0,33.0,30.7,30.8,29.4,28.2,92,87,77,29.99,26.87,11,5,14,0.11
2013-2-28,37.2,33.9,31.8,30.3,28.8,27.8,87,82,71,30.30,29.98,15,8,17,0.01